Location: Cherryland
(37.6794°N, 122.1033°W)
Time: 23:08:49
(UTC+00:00)

Cosmos 1655 Rocket - Pass Details

Date: 14 December 2025
Orbit: 969 x 1006 km, 83.0° (Epoch: 14 January)

Event Time Altitude Azimuth Distance (km) Brightness Sun altitude
Rises 14:34:02 0° 182° (S) 3,707 7.3 -8.3°
Reaches altitude 10° 14:36:33 10° 182° (S) 2,757 6.7 -7.8°
Maximum altitude 14:42:53 83° 96° (E) 1,003 4.2 -6.7°
Drops below altitude 10° 14:49:13 10° 8° (N) 2,749 6.2 -5.5°
Sets 14:51:43 0° 8° (N) 3,696 6.8 -5.1°
